Weather History for Salem, IL

Change the Weather History Date:

Thursday, March 8, 2012

  Actual Average Record
Temperature  
Mean Temperature 52 °F -  
Max Temperature 65 °F 53 °F 81 °F (1974)
Min Temperature 39 °F 31 °F 5 °F (1960)
Degree Days  
Heating Degree Days 13    
Growing Degree Days 2 (Base 50)    
Moisture  
Dew Point 40 °F    
Average Humidity 72    
Maximum Humidity 93    
Minimum Humidity 54    
Precipitation  
Precipitation 0.21 in - - ()
Sea Level Pressure  
Sea Level Pressure 30.12 in    
Wind  
Wind Speed 16 mph (WNW)    
Max Wind Speed 33 mph    
Max Gust Speed 43 mph    
Visibility 9 miles    
Events Rain    
Averages and records for this station are not official NWS values.
T = Trace of Precipitation, MM = Missing Value Source: NWS Daily Summary

Daily Weather History Graph

Daily Weather History Graph

Search for Another Location

Airport:

Trip Planner

Search our weather history database for the weather conditions in past years. The results will help you decide how hot, cold, wet, or windy it might be!

Date:

Astronomy

Mar. 08, 2012 Rise Set
Actual Time 6:17 AM CST 5:56 PM CST
Civil Twilight 5:50 AM CST 6:23 PM CST
Nautical Twilight 5:19 AM CST 6:53 PM CST
Astronomical Twilight 4:48 AM CST 7:24 PM CST
Moon 6:42 PM CST (3/8) 6:01 AM CST (3/8)
Length of Visible Light 12h 32m
Length of Day
11h 39m
Full, 100% of the Moon is Illuminated
Mar 8
Full
Mar 14
Last Quarter
Mar 22
New
Mar 30
First Quarter
Apr 6
Full

Hourly Weather History & Observations

Time (CST) Temp. Windchill Dew Point Humidity Pressure Visibility Wind Dir Wind Speed Gust Speed Precip Events Conditions
12:15 AM 64.4 °F - 49.1 °F 58% 30.00 in 10.0 mi South 19.6 mph 27.6 mph N/A   Overcast
12:35 AM 64.4 °F - 49.3 °F 58% 29.99 in 10.0 mi South 16.1 mph 25.3 mph N/A   Overcast
12:55 AM 64.4 °F - 50.0 °F 59% 29.98 in 10.0 mi South 20.7 mph 26.5 mph N/A   Overcast
1:15 AM 64.4 °F - 50.0 °F 59% 29.98 in 10.0 mi South 16.1 mph 27.6 mph N/A   Overcast
1:35 AM 64.8 °F - 50.5 °F 60% 29.97 in 10.0 mi South 21.9 mph 32.2 mph N/A   Overcast
1:55 AM 65.3 °F - 50.9 °F 60% 29.97 in 10.0 mi SSW 26.5 mph 34.5 mph N/A   Overcast
2:15 AM 65.1 °F - 51.1 °F 60% 29.97 in 10.0 mi SSW 23.0 mph 31.1 mph N/A   Overcast
2:35 AM 64.4 °F - 51.4 °F 63% 29.96 in 10.0 mi SSW 19.6 mph 25.3 mph N/A Rain Rain
2:55 AM 62.1 °F - 53.1 °F 72% 29.95 in 5.0 mi SSW 20.7 mph 32.2 mph N/A Rain Light Rain
3:15 AM 61.7 °F - 53.6 °F 75% 29.96 in 5.0 mi SSW 11.5 mph 17.3 mph 0.01 in Rain Rain
3:35 AM 60.8 °F - 54.0 °F 78% 29.96 in 5.0 mi SSW 13.8 mph 21.9 mph 0.03 in Rain Light Rain
3:55 AM 60.8 °F - 54.1 °F 79% 29.95 in 10.0 mi SSW 15.0 mph 19.6 mph 0.03 in   Mostly Cloudy
4:15 AM 60.8 °F - 54.1 °F 79% 29.95 in 10.0 mi SSW 16.1 mph 20.7 mph N/A Rain Light Rain
4:35 AM 60.8 °F - 54.1 °F 79% 29.96 in 10.0 mi SW 12.7 mph 18.4 mph N/A Rain Rain
4:55 AM 60.8 °F - 54.5 °F 80% 29.95 in 10.0 mi SSW 12.7 mph - N/A   Overcast
5:15 AM 60.8 °F - 54.7 °F 80% 29.95 in 10.0 mi SSW 17.3 mph 23.0 mph N/A   Mostly Cloudy
5:35 AM 60.8 °F - 55.0 °F 81% 29.96 in 10.0 mi WSW 16.1 mph 20.7 mph N/A   Overcast
5:55 AM 59.7 °F - 56.1 °F 88% 29.95 in 10.0 mi SW 8.1 mph - 0.06 in Rain Light Rain
6:15 AM 60.1 °F - 56.3 °F 87% 29.94 in 10.0 mi SW 11.5 mph 16.1 mph N/A   Overcast
6:35 AM 59.4 °F - 57.0 °F 92% 29.97 in 4.0 mi WNW 11.5 mph - 0.10 in Rain Light Rain
6:55 AM 47.1 °F - 43.9 °F 88% 30.02 in 3.0 mi NNW 33.4 mph 42.6 mph 0.12 in Rain Rain
7:15 AM 43.9 °F 35.2 °F 41.5 °F 91% 30.06 in 4.0 mi NNW 21.9 mph 41.4 mph N/A Rain Light Rain
7:35 AM 43.9 °F 36.5 °F 41.9 °F 93% 30.07 in 7.0 mi NNW 16.1 mph - N/A Rain Light Rain
7:55 AM 42.3 °F 33.8 °F 40.3 °F 93% 30.08 in 10.0 mi NNW 18.4 mph - N/A Rain Light Rain
8:15 AM 41.9 °F 35.0 °F 39.7 °F 92% 30.09 in 10.0 mi NNW 12.7 mph 20.7 mph N/A Rain Light Rain
8:35 AM 41.9 °F 34.3 °F 38.7 °F 88% 30.08 in 10.0 mi NNW 15.0 mph - N/A   Overcast
8:55 AM 41.2 °F 33.7 °F 37.4 °F 86% 30.10 in 10.0 mi NNW 13.8 mph - N/A Rain Light Rain
9:15 AM 41.9 °F 34.0 °F 38.3 °F 87% 30.14 in 10.0 mi NNW 16.1 mph 21.9 mph N/A   Overcast
9:35 AM 41.2 °F 32.1 °F 37.4 °F 86% 30.16 in 10.0 mi NW 19.6 mph 29.9 mph N/A   Overcast
9:55 AM 41.5 °F 32.9 °F 36.7 °F 83% 30.18 in 10.0 mi NW 18.4 mph 26.5 mph N/A   Overcast
10:15 AM 42.3 °F 35.1 °F 37.0 °F 82% 30.19 in 10.0 mi NW 13.8 mph 21.9 mph N/A   Overcast
10:35 AM 41.0 °F 32.5 °F 33.8 °F 76% 30.20 in 10.0 mi NW 17.3 mph 23.0 mph N/A Rain Light Rain
10:55 AM 40.6 °F 33.4 °F 33.3 °F 75% 30.19 in 10.0 mi NNW 12.7 mph 21.9 mph N/A Rain Light Rain
11:15 AM 40.1 °F 32.0 °F 32.4 °F 74% 30.20 in 10.0 mi NNW 15.0 mph 24.2 mph N/A   Overcast
11:35 AM 40.1 °F 32.4 °F 32.7 °F 75% 30.21 in 10.0 mi WNW 13.8 mph 18.4 mph N/A Rain Light Rain
11:55 AM 40.1 °F 32.4 °F 32.7 °F 75% 30.23 in 10.0 mi NW 13.8 mph - N/A Rain Light Rain
12:15 PM 39.2 °F 30.2 °F 32.0 °F 75% 30.23 in 10.0 mi NNW 17.3 mph - N/A   Overcast
12:35 PM 40.1 °F 31.3 °F 31.5 °F 71% 30.19 in 10.0 mi NNW 17.3 mph 24.2 mph N/A   Overcast
12:55 PM 41.0 °F 32.5 °F 30.2 °F 65% 30.23 in 10.0 mi NNW 17.3 mph - N/A   Overcast
1:15 PM 40.6 °F 33.4 °F 31.3 °F 69% 30.23 in 10.0 mi NW 12.7 mph - N/A   Overcast
1:35 PM 41.0 °F 33.5 °F 30.2 °F 65% 30.25 in 10.0 mi NW 13.8 mph 18.4 mph N/A   Overcast
1:55 PM 40.8 °F 32.6 °F 28.2 °F 61% 30.26 in 10.0 mi NW 16.1 mph - N/A   Mostly Cloudy
2:15 PM 40.3 °F 33.0 °F 27.1 °F 59% 30.27 in 10.0 mi NW 12.7 mph 19.6 mph N/A   Mostly Cloudy
2:35 PM 40.3 °F 34.4 °F 27.7 °F 61% 30.25 in 10.0 mi NW 9.2 mph 17.3 mph N/A   Scattered Clouds
2:55 PM 40.3 °F 33.4 °F 28.6 °F 63% 30.25 in 10.0 mi NW 11.5 mph - N/A   Clear
3:15 PM 40.3 °F 34.4 °F 28.2 °F 62% 30.28 in 10.0 mi NW 9.2 mph - N/A   Clear
3:35 PM 40.3 °F 33.4 °F 27.9 °F 61% 30.32 in 10.0 mi NW 11.5 mph - N/A   Clear
3:55 PM 40.6 °F 34.8 °F 28.0 °F 61% 30.33 in 10.0 mi WNW 9.2 mph - N/A   Clear
4:15 PM 40.6 °F 35.4 °F 27.9 °F 60% 30.32 in 10.0 mi NW 8.1 mph - N/A   Clear
4:35 PM 41.4 °F 36.8 °F 28.9 °F 61% 30.32 in 10.0 mi NW 6.9 mph - N/A   Clear
4:55 PM 41.0 °F 36.4 °F 28.4 °F 61% 30.32 in 10.0 mi NW 6.9 mph - N/A   Clear
5:15 PM 41.2 °F 33.4 °F 25.5 °F 54% 30.32 in 10.0 mi NNW 15.0 mph 20.7 mph N/A   Clear
5:35 PM 41.0 °F 33.9 °F 25.5 °F 54% 30.33 in 10.0 mi NNW 12.7 mph 19.6 mph N/A   Clear
5:55 PM 40.3 °F 34.9 °F 26.4 °F 58% 30.31 in 10.0 mi NNW 8.1 mph - N/A   Clear
6:15 PM 39.7 °F 34.3 °F 27.1 °F 61% 30.32 in 10.0 mi NNW 8.1 mph - N/A   Clear
6:35 PM 39.4 °F 35.2 °F 27.0 °F 61% 30.31 in 10.0 mi NNW 5.8 mph - N/A   Clear
6:55 PM 38.5 °F 35.0 °F 27.1 °F 64% 30.32 in 10.0 mi NNW 4.6 mph - N/A   Clear
7:15 PM 36.9 °F 32.2 °F 27.5 °F 69% 30.32 in 10.0 mi NNW 5.8 mph - N/A   Clear
7:35 PM 36.9 °F 33.1 °F 27.5 °F 69% 30.32 in 10.0 mi NW 4.6 mph - N/A   Clear
7:55 PM 37.4 °F 34.9 °F 26.6 °F 65% 30.33 in 10.0 mi NW 3.5 mph - N/A   Clear
8:15 PM 35.6 °F 32.8 °F 27.1 °F 71% 30.33 in 10.0 mi NNW 3.5 mph - N/A   Clear
8:35 PM 36.0 °F 31.1 °F 26.2 °F 68% 30.33 in 10.0 mi NNW 5.8 mph - N/A   Clear
8:55 PM 35.1 °F 31.0 °F 26.4 °F 71% 30.35 in 10.0 mi NW 4.6 mph - N/A   Clear
9:15 PM 34.9 °F 29.9 °F 26.1 °F 70% 30.35 in 10.0 mi NW 5.8 mph - N/A   Clear
9:35 PM 35.1 °F 30.1 °F 25.7 °F 69% 30.36 in 10.0 mi NW 5.8 mph - N/A   Clear
9:55 PM 35.1 °F 31.0 °F 25.7 °F 69% 30.37 in 10.0 mi NW 4.6 mph - N/A   Clear
10:15 PM 35.4 °F 29.7 °F 25.7 °F 68% 30.38 in 10.0 mi NW 6.9 mph - N/A   Clear
10:35 PM 35.2 °F 30.3 °F 25.7 °F 68% 30.39 in 10.0 mi NW 5.8 mph - N/A   Clear
10:55 PM 35.6 °F 29.2 °F 24.8 °F 65% 30.41 in 10.0 mi NW 8.1 mph - N/A   Clear
11:15 PM 36.9 °F 30.7 °F 25.9 °F 64% 30.40 in 10.0 mi NW 8.1 mph - N/A   Clear
11:35 PM 35.6 °F 29.2 °F 24.8 °F 65% 30.40 in 10.0 mi NW 8.1 mph - N/A   Clear
11:55 PM 35.6 °F 29.9 °F 25.2 °F 66% 30.40 in 10.0 mi NW 6.9 mph - N/A   Clear